Location: Dehesa de la Cepeda
(40.6574°N, 4.3013°W)
Time: 18:28:29
(UTC+00:00)

Cosmos 371 Rocket - Pass Details

Date: 05 July 2020
Orbit: 684 x 699 km, 74.0° (Epoch: 05 August)

Event Time Altitude Azimuth Distance (km) Brightness Sun altitude
Rises 23:43:10 0° 346° (NNW) 3,080 8.0 -26.0°
Reaches altitude 10° 23:45:35 10° 352° (N) 2,157 6.9 -26.1°
Maximum altitude 23:50:17 49° 67° (ENE) 897 3.8 -26.3°
Enters shadow 23:50:24 48° 72° (ENE) 898 3.8 -26.3°
